Akron, CO

5:05 PM MDT on September 24, 2016 (GMT -0600)
Akron-Washington County

Weather History for KAKO - March, 2014

Change the Weather History Date:

Saturday, March 22, 2014

  Actual Average Record
Temperature  
Mean Temperature 22 °F 41 °F  
Max Temperature 27 °F 54 °F 77 °F (2009)
Min Temperature 16 °F 27 °F 7 °F (1965)
Degree Days  
Heating Degree Days 43    
Month to date heating degree days 601  
Cooling Degree Days 0    
Month to date cooling degree days 0  
Moisture  
Dew Point 20 °F    
Average Humidity 87    
Maximum Humidity 92    
Minimum Humidity 81    
Precipitation  
Precipitation 0.01 in 0.03 in 0.44 in (1979)
Month to date precipitation 0.29 0.56  
Year to date precipitation 0.72 1.30  
Sea Level Pressure  
Sea Level Pressure 30.25 in    
Wind  
Wind Speed 16 mph (ESE)    
Max Wind Speed 22 mph    
Max Gust Speed 26 mph    
Visibility 5 miles    
Events Fog , Rain , Snow    
T = Trace of Precipitation, MM = Missing Value Source: NWS Daily Summary

Daily Weather History Graph

Daily Weather History Graph

Search for Another Location

Airport or City:

Trip Planner

Search our weather history database for the weather conditions in past years. The results will help you decide how hot, cold, wet, or windy it might be!

Date:

Astronomy

Mar. 22, 2014 Rise Set
Actual Time 6:52 AM MDT 7:07 PM MDT
Civil Twilight 6:25 AM MDT 7:34 PM MDT
Nautical Twilight 5:54 AM MDT 8:06 PM MDT
Astronomical Twilight 5:21 AM MDT 8:38 PM MDT
Moon 12:28 AM MDT (3/22) 10:38 AM MDT (3/22)
Length of Visible Light 13h 08m
Length of Day
12h 14m
Waning Gibbous, 65% of the Moon is Illuminated
Mar 22
Waning Gibbous
Mar 23
Last Quarter
Mar 30
New
Apr 7
First Quarter
Apr 15
Full

Hourly Weather History & Observations

Time (MDT) Temp. Windchill Dew Point Humidity Pressure Visibility Wind Dir Wind Speed Gust Speed Precip Events Conditions
12:53 AM 27.0 °F 15.2 °F 21.9 °F 81% 30.21 in 10.0 mi ESE 15.0 mph - 0.00 in   Mostly Cloudy
1:17 AM 26.1 °F 14.0 °F 23.0 °F 88% 30.16 in 9.0 mi East 15.0 mph - N/A   Overcast
1:31 AM 26.1 °F 14.0 °F 23.0 °F 88% 30.16 in 10.0 mi East 15.0 mph - N/A   Overcast
1:53 AM 26.1 °F 14.0 °F 23.0 °F 88% 30.21 in 10.0 mi ESE 15.0 mph - N/A   Overcast
2:39 AM 25.0 °F 12.2 °F 23.0 °F 92% 30.14 in 10.0 mi East 16.1 mph 20.7 mph N/A   Overcast
2:53 AM 25.0 °F 12.2 °F 23.0 °F 92% 30.19 in 10.0 mi ESE 16.1 mph - N/A   Overcast
3:23 AM 25.0 °F 10.9 °F 23.0 °F 92% 30.13 in 10.0 mi ESE 19.6 mph - N/A   Overcast
3:53 AM 25.0 °F 11.3 °F 23.0 °F 92% 30.17 in 9.0 mi ESE 18.4 mph - N/A   Overcast
4:53 AM 24.1 °F 9.0 °F 23.0 °F 96% 30.18 in 4.0 mi ESE 21.9 mph - N/A   Overcast
5:13 AM 24.1 °F 11.0 °F 23.0 °F 96% 30.12 in 2.5 mi ESE 16.1 mph - N/A   Overcast
5:20 AM 24.1 °F 10.1 °F 23.0 °F 96% 30.12 in 1.2 mi ESE 18.4 mph - N/A   Overcast
5:24 AM 24.1 °F 9.8 °F 23.0 °F 96% 30.11 in 0.8 mi ESE 19.6 mph - N/A   Mist
5:53 AM 24.1 °F 10.1 °F 23.0 °F 96% 30.19 in 0.5 mi ESE 18.4 mph - N/A Fog Light Freezing Fog
6:25 AM 24.1 °F 9.8 °F 24.1 °F 100% 30.13 in 1.2 mi ESE 19.6 mph - N/A   Overcast
6:28 AM 24.1 °F 11.0 °F 23.0 °F 96% 30.13 in 2.5 mi SE 16.1 mph - N/A   Overcast
6:35 AM 24.1 °F 10.1 °F 23.0 °F 96% 30.14 in 9.0 mi SE 18.4 mph - N/A   Overcast
6:53 AM 24.1 °F 10.1 °F 23.0 °F 96% 30.22 in 10.0 mi SE 18.4 mph - N/A   Overcast
7:20 AM 24.1 °F 11.5 °F 24.1 °F 100% 30.15 in 1.2 mi SE 15.0 mph - 0.00 in Rain Light Freezing Rain
7:27 AM 24.1 °F 11.0 °F 23.0 °F 96% 30.15 in 1.0 mi SE 16.1 mph - 0.00 in Rain Light Freezing Rain
7:30 AM 24.1 °F 10.6 °F 23.0 °F 96% 30.15 in 2.5 mi SE 17.3 mph 24.2 mph 0.00 in   Overcast
7:37 AM 24.1 °F 11.0 °F 23.0 °F 96% 30.15 in 7.0 mi ESE 16.1 mph 24.2 mph 0.00 in   Overcast
7:53 AM 24.1 °F 11.0 °F 23.0 °F 96% 30.24 in 8.0 mi SE 16.1 mph - 0.00 in   Overcast
8:43 AM 24.1 °F 11.5 °F 21.9 °F 91% 30.16 in 10.0 mi SSE 15.0 mph - N/A   Overcast
8:53 AM 24.1 °F 10.6 °F 21.9 °F 91% 30.25 in 10.0 mi SE 17.3 mph - N/A   Overcast
9:53 AM 24.1 °F 10.1 °F 21.9 °F 91% 30.26 in 10.0 mi SSE 18.4 mph - N/A   Overcast
10:53 AM 25.0 °F 12.2 °F 21.9 °F 88% 30.27 in 10.0 mi SE 16.1 mph - N/A   Overcast
11:53 AM 25.0 °F 12.6 °F 21.9 °F 88% 30.29 in 8.0 mi SE 15.0 mph - N/A   Overcast
12:40 PM 26.1 °F 13.6 °F 21.0 °F 81% 30.18 in 10.0 mi SE 16.1 mph - N/A   Overcast
12:53 PM 26.1 °F 14.0 °F 21.0 °F 81% 30.28 in 9.0 mi SE 15.0 mph - 0.00 in Snow Light Snow
1:19 PM 26.1 °F 15.0 °F 21.9 °F 84% 30.18 in 1.0 mi SE 12.7 mph - 0.00 in Snow Light Snow
2:01 PM 24.1 °F 11.0 °F 21.9 °F 91% 30.18 in 0.8 mi East 16.1 mph - 0.00 in Snow Light Snow
2:14 PM 24.1 °F 11.0 °F 21.0 °F 88% 30.18 in 0.8 mi East 16.1 mph - 0.00 in Snow Light Snow
2:30 PM 24.1 °F 11.0 °F 21.0 °F 88% 30.19 in 1.0 mi East 16.1 mph - 0.00 in Snow Light Snow
2:41 PM 24.1 °F 11.5 °F 21.0 °F 88% 30.19 in 1.2 mi East 15.0 mph - 0.01 in Snow Light Snow
2:53 PM 24.1 °F 12.0 °F 21.0 °F 88% 30.32 in 1.2 mi East 13.8 mph - 0.01 in Snow Light Snow
3:00 PM 24.1 °F 11.0 °F 21.0 °F 88% 30.20 in 1.0 mi East 16.1 mph - 0.00 in Snow Light Snow
3:15 PM 24.1 °F 12.0 °F 21.0 °F 88% 30.20 in 1.2 mi East 13.8 mph - 0.00 in Snow Light Snow
3:22 PM 24.1 °F 12.0 °F 21.0 °F 88% 30.20 in 1.5 mi East 13.8 mph - 0.00 in Snow Light Snow
3:37 PM 24.1 °F 10.6 °F 19.9 °F 84% 30.20 in 1.8 mi East 17.3 mph - 0.00 in Snow Light Snow
3:45 PM 24.1 °F 11.5 °F 19.9 °F 84% 30.20 in 1.8 mi East 15.0 mph - 0.00 in Snow Light Snow
3:49 PM 23.0 °F 9.6 °F 19.4 °F 86% 30.20 in 2.0 mi East 16.1 mph - 0.00 in Snow Light Snow
3:53 PM 23.0 °F 10.1 °F 19.9 °F 88% 30.34 in 2.5 mi East 15.0 mph - 0.00 in Snow Light Snow
4:02 PM 23.0 °F 10.6 °F 19.0 °F 85% 30.21 in 4.0 mi East 13.8 mph - 0.00 in Snow Light Snow
4:20 PM 23.0 °F 10.6 °F 19.9 °F 88% 30.22 in 2.0 mi East 13.8 mph - 0.00 in Snow Light Snow
4:24 PM 23.0 °F 10.6 °F 19.9 °F 88% 30.22 in 1.8 mi East 13.8 mph - 0.00 in Snow Light Snow
4:28 PM 23.0 °F 11.1 °F 19.9 °F 88% 30.22 in 1.2 mi East 12.7 mph - 0.00 in Snow Light Snow
4:38 PM 24.1 °F 13.1 °F 19.9 °F 84% 30.22 in 1.2 mi East 11.5 mph - 0.00 in Snow Light Snow
4:53 PM 21.0 °F 7.1 °F 18.0 °F 88% 30.38 in 1.2 mi ENE 16.1 mph - 0.00 in Snow Light Snow
5:01 PM 21.0 °F 7.6 °F 18.0 °F 88% 30.24 in 2.0 mi ENE 15.0 mph - 0.00 in Snow Light Snow
5:13 PM 21.0 °F 6.2 °F 18.0 °F 88% 30.25 in 5.0 mi ENE 18.4 mph - 0.00 in Snow Light Snow
5:22 PM 19.9 °F 5.2 °F 17.1 °F 89% 30.26 in 7.0 mi ENE 17.3 mph - 0.00 in   Overcast
5:44 PM 19.9 °F 4.8 °F 17.1 °F 89% 30.26 in 7.0 mi East 18.4 mph - 0.00 in   Overcast
5:53 PM 19.9 °F 5.7 °F 17.1 °F 89% 30.42 in 9.0 mi ENE 16.1 mph - 0.00 in   Overcast
6:53 PM 18.0 °F 3.6 °F 16.0 °F 92% 30.46 in 8.0 mi East 15.0 mph - N/A   Overcast
7:53 PM 18.0 °F 4.8 °F 15.1 °F 88% 30.50 in 9.0 mi ENE 12.7 mph - N/A   Overcast
8:27 PM 17.1 °F 4.3 °F 15.1 °F 92% 30.35 in 10.0 mi East 11.5 mph - N/A   Overcast
8:53 PM 17.1 °F 4.3 °F 15.1 °F 92% 30.52 in 9.0 mi East 11.5 mph - N/A   Overcast
9:53 PM 16.0 °F 5.3 °F 14.0 °F 92% 30.54 in 9.0 mi East 8.1 mph - N/A   Overcast
10:01 PM 16.0 °F 4.4 °F 14.0 °F 92% 30.37 in 9.0 mi East 9.2 mph - N/A   Overcast
10:11 PM 16.0 °F 3.6 °F 14.0 °F 92% 30.37 in 10.0 mi East 10.4 mph - N/A   Overcast
10:53 PM 16.0 °F 5.3 °F 14.0 °F 92% 30.53 in 9.0 mi ESE 8.1 mph - N/A   Overcast
11:23 PM 16.0 °F 5.3 °F 15.1 °F 96% 30.37 in 7.0 mi SE 8.1 mph - N/A   Overcast
11:53 PM 17.1 °F 6.6 °F 15.1 °F 92% 30.52 in 4.0 mi SE 8.1 mph - N/A   Overcast